FW3819 Weather Reports


Display with metric or nautical units.
time (UTC)temp
F
wind
direction
speed
MPH
gust
MPH
rain 1hr
in
rain 24hr
in
rain mn
in
humidity
%
barometer
mb
20260510204802 69 256 4.0 26.0 0.00 0.00 0.00 75 1015.6
20260510204302 70 225 2.0 8.0 0.00 0.00 0.00 72 1015.0
20260510203803 72 188 1.0 4.0 0.00 0.00 0.00 69 1014.5
20260510203553 72 205 1.0 3.0 0.00 0.00 0.00 67 1014.3
20260510202802 73 198 0.0 3.0 0.00 0.00 0.00 66 1013.9
20260510202550 74 100 1.0 3.0 0.00 0.00 0.00 61 1013.7
20260510201802 74 82 1.0 3.0 0.00 0.00 0.00 60 1013.7
20260510201301 74 82 0.0 3.0 0.00 0.00 0.00 63 1013.6
20260510200801 74 261 1.0 3.0 0.00 0.00 0.00 58 1013.6
20260510200528 74 162 1.0 4.0 0.00 0.00 0.00 58 1013.7
20260510195802 75 100 2.0 7.0 0.00 0.00 0.00 58 1013.7
20260510195306 75 129 2.0 7.0 0.00 0.00 0.00 54 1013.9
20260510194804 75 135 2.0 7.0 0.00 0.00 0.00 54 1013.9
20260510194304 76 152 1.0 7.0 0.00 0.00 0.00 59 1013.8
20260510193804 76 294 1.0 7.0 0.00 0.00 0.00 55 1013.8
20260510193303 77 305 1.0 5.0 0.00 0.00 0.00 50 1013.9
20260510193055 78 279 1.0 5.0 0.00 0.00 0.00 48 1013.9
20260510192301 79 234 1.0 5.0 0.00 0.00 0.00 47 1013.8
20260510191802 79 187 2.0 4.0 0.00 0.00 0.00 41 1013.8
20260510191652 80 143 2.0 7.0 0.00 0.00 0.00 37 1013.9
20260510191644 80 205 2.0 7.0 0.00 0.00 0.00 40 1013.8
20260510190301 80 201 1.0 9.0 0.00 0.00 0.00 40 1013.8
20260510185801 80 196 2.0 9.0 0.00 0.00 0.00 38 1013.9
20260510185301 81 11 3.0 9.0 0.00 0.00 0.00 36 1013.8
20260510184800 83 143 3.0 9.0 0.00 0.00 0.00 34 1013.8
20260510184304 84 205 2.0 12.0 0.00 0.00 0.00 37 1013.8
20260510183802 82 158 2.0 9.0 0.00 0.00 0.00 40 1013.8
20260510183303 83 268 1.0 5.0 0.00 0.00 0.00 36 1013.8
20260510182801 84 181 1.0 4.0 0.00 0.00 0.00 39 1013.8
20260510182553 84 279 1.0 5.0 0.00 0.00 0.00 36 1013.8
20260510181803 84 4 2.0 8.0 0.00 0.00 0.00 37 1013.9
20260510181302 85 229 2.0 9.0 0.00 0.00 0.00 37 1013.8
20260510180802 84 234 2.0 9.0 0.00 0.00 0.00 38 1013.9
20260510180302 82 143 1.0 5.0 0.00 0.00 0.00 38 1013.9
20260510175802 82 326 1.0 5.0 0.00 0.00 0.00 39 1014.0
20260510175301 81 129 2.0 7.0 0.00 0.00 0.00 39 1014.2
20260510174802 81 77 3.0 9.0 0.00 0.00 0.00 37 1014.2
20260510174301 82 152 3.0 9.0 0.00 0.00 0.00 38 1014.3
20260510173802 83 160 2.0 9.0 0.00 0.00 0.00 38 1014.3
20260510173302 83 181 1.0 8.0 0.00 0.00 0.00 38 1014.4
20260510172801 82 113 2.0 11.0 0.00 0.00 0.00 40 1014.4
20260510172300 80 178 2.0 11.0 0.00 0.00 0.00 41 1014.5
20260510171800 81 28 2.0 8.0 0.00 0.00 0.00 38 1014.5
20260510171302 82 256 3.0 7.0 0.00 0.00 0.00 39 1014.5
20260510171050 82 175 3.0 11.0 0.00 0.00 0.00 40 1014.5
20260510170303 81 82 4.0 14.0 0.00 0.00 0.00 40 1014.5
20260510165802 81 166 3.0 14.0 0.00 0.00 0.00 40 1014.5
20260510165305 80 183 2.0 14.0 0.00 0.00 0.00 43 1014.5
20260510164802 80 241 3.0 12.0 0.00 0.00 0.00 41 1014.6
20260510164303 80 241 2.0 12.0 0.00 0.00 0.00 41 1014.5
20260510163803 80 100 2.0 5.0 0.00 0.00 0.00 41 1014.7
20260510163303 80 201 2.0 7.0 0.00 0.00 0.00 44 1014.7
20260510162804 80 186 1.0 7.0 0.00 0.00 0.00 43 1014.7
20260510162306 80 132 1.0 7.0 0.00 0.00 0.00 42 1014.9
20260510161801 79 54 2.0 9.0 0.00 0.00 0.00 41 1014.9
20260510161305 80 153 3.0 9.0 0.00 0.00 0.00 42 1014.8
20260510160802 79 100 2.0 8.0 0.00 0.00 0.00 43 1014.7
20260510160304 78 234 2.0 7.0 0.00 0.00 0.00 47 1014.8
20260510160053 78 326 2.0 7.0 0.00 0.00 0.00 44 1014.9
20260510155305 77 234 2.0 7.0 0.00 0.00 0.00 46 1014.9
20260510154802 77 162 2.0 7.0 0.00 0.00 0.00 45 1014.9
20260510154550 77 82 2.0 9.0 0.00 0.00 0.00 46 1014.9
20260510153805 76 215 3.0 9.0 0.00 0.00 0.00 49 1015.0
20260510153305 75 152 2.0 9.0 0.00 0.00 0.00 48 1014.9
20260510152851 75 194 2.0 8.0 0.00 0.00 0.00 51 1014.9
20260510152836 74 215 1.0 5.0 0.00 0.00 0.00 52 1014.8
20260510151801 74 143 3.0 9.0 0.00 0.00 0.00 54 1014.9
20260510151440 73 296 3.0 7.0 0.00 0.00 0.00 57 1015.0
20260510151415 73 191 3.0 11.0 0.00 0.00 0.00 56 1015.0
20260510151133 73 271 3.0 11.0 0.00 0.00 0.00 54 1015.0
20260510145802 73 195 3.0 11.0 0.00 0.00 0.00 53 1014.9
20260510145300 73 160 3.0 11.0 0.00 0.00 0.00 54 1014.8
20260510144802 73 218 2.0 7.0 0.00 0.00 0.00 57 1014.7
20260510144301 72 279 2.0 7.0 0.00 0.00 0.00 58 1014.6
20260510143802 71 107 1.0 4.0 0.00 0.00 0.00 64 1014.6
20260510143305 71 100 1.0 4.0 0.00 0.00 0.00 66 1014.5
20260510143057 70 234 1.0 3.0 0.00 0.00 0.00 68 1014.5
20260510142257 69 251 0.0 3.0 0.00 0.00 0.00 67 1014.3
20260510141751 68 171 0.0 3.0 0.00 0.00 0.00 71 1014.4
20260510141245 67 279 0.0 3.0 0.00 0.00 0.00 72 1014.3
20260510140739 67 54 0.0 3.0 0.00 0.00 0.00 74 1014.3
20260510140232 66 11 1.0 3.0 0.00 0.00 0.00 74 1014.4
20260510135733 66 37 1.0 3.0 0.00 0.00 0.00 74 1014.4
20260510135233 66 117 1.0 3.0 0.00 0.00 0.00 74 1014.4
20260510135032 65 116 1.0 3.0 0.00 0.00 0.00 73 1014.5
20260510134527 65 125 1.0 3.0 0.00 0.00 0.00 73 1014.5
20260510134030 64 100 1.0 3.0 0.00 0.00 0.00 75 1014.5
20260510133232 64 100 1.0 3.0 0.00 0.00 0.00 76 1014.7
20260510132732 64 11 1.0 4.0 0.00 0.00 0.00 78 1014.7
20260510132232 63 143 1.0 4.0 0.00 0.00 0.00 79 1014.6
20260510131732 63 188 1.0 3.0 0.00 0.00 0.00 80 1014.6
20260510131533 63 171 1.0 3.0 0.00 0.00 0.00 81 1014.5
20260510130732 62 82 1.0 3.0 0.00 0.00 0.00 82 1014.6
20260510130523 62 100 1.0 3.0 0.00 0.00 0.00 84 1014.5
20260510125730 61 188 1.0 3.0 0.00 0.00 0.00 84 1014.6
20260510125533 61 187 1.0 3.0 0.00 0.00 0.00 85 1014.5
20260510124731 60 187 1.0 3.0 0.00 0.00 0.00 86 1014.6
20260510124225 60 117 1.0 3.0 0.00 0.00 0.00 86 1014.8
20260510123719 59 279 1.0 3.0 0.00 0.00 0.00 87 1014.8
20260510123213 58 340 0.0 3.0 0.00 0.00 0.00 89 1014.8
20260510122758 57 171 0.0 1.0 0.00 0.00 0.00 91 1014.8
20260510122741 58 171 0.0 1.0 0.00 0.00 0.00 90 1014.8
20260510121952 57 234 0.0 1.0 0.00 0.00 0.00 92 1014.8
20260510121202 56 54 0.0 1.0 0.00 0.00 0.00 93 1014.7
20260510120701 56 54 0.0 1.0 0.00 0.00 0.00 93 1014.8
20260510120201 55 54 0.0 1.0 0.00 0.00 0.00 94 1014.8
20260510115702 55 279 0.0 3.0 0.00 0.00 0.00 94 1014.8
20260510115453 55 143 0.0 3.0 0.00 0.00 0.00 94 1014.6
20260510114702 54 234 0.0 3.0 0.00 0.00 0.00 94 1014.6
20260510114202 54 279 1.0 3.0 0.00 0.00 0.00 94 1014.6
20260510113702 53 215 0.0 3.0 0.00 0.00 0.00 94 1014.6
20260510113501 53 248 0.0 1.0 0.00 0.00 0.00 94 1014.5
20260510112954 52 326 0.0 1.0 0.00 0.00 0.00 94 1014.4
20260510112201 52 326 0.0 1.0 0.00 0.00 0.00 94 1014.3
20260510111959 51 279 0.0 1.0 0.00 0.00 0.00 94 1014.1
20260510111203 51 326 0.0 3.0 0.00 0.00 0.00 94 1014.0
20260510110702 51 268 0.0 3.0 0.00 0.00 0.00 94 1013.9
20260510110203 51 11 0.0 1.0 0.00 0.00 0.00 94 1013.9
20260510105702 51 11 0.0 1.0 0.00 0.00 0.00 94 1013.8
20260510105203 51 100 0.0 1.0 0.00 0.00 0.00 94 1013.8
20260510104702 50 296 0.0 1.0 0.00 0.00 0.00 94 1013.7
20260510104459 50 326 0.0 1.0 0.00 0.00 0.00 94 1013.5
20260510103701 50 116 0.0 1.0 0.00 0.00 0.00 94 1013.5
20260510103203 50 11 0.0 1.0 0.00 0.00 0.00 94 1013.3
20260510102702 50 100 0.0 1.0 0.00 0.00 0.00 94 1013.2
20260510102203 50 100 0.0 1.0 0.00 0.00 0.00 93 1013.1
20260510101702 50 54 0.0 1.0 0.00 0.00 0.00 93 1013.1
20260510101457 50 11 0.0 1.0 0.00 0.00 0.00 93 1013.0
20260510100703 50 279 0.0 1.0 0.00 0.00 0.00 93 1013.0
20260510100202 50 143 0.0 1.0 0.00 0.00 0.00 93 1013.0
20260510095702 50 100 0.0 1.0 0.00 0.00 0.00 93 1012.9
20260510095201 50 110 0.0 1.0 0.00 0.00 0.00 93 1013.0
20260510094700 50 100 0.0 1.0 0.00 0.00 0.00 93 1012.9
20260510094203 50 100 0.0 1.0 0.00 0.00 0.00 93 1012.9
20260510093704 50 100 0.0 0.0 0.00 0.00 0.00 93 1012.9
20260510093157 51 54 0.0 1.0 0.00 0.00 0.00 93 1012.9
20260510092652 50 54 0.0 1.0 0.00 0.00 0.00 93 1012.9
20260510092145 51 54 0.0 1.0 0.00 0.00 0.00 93 1012.9
20260510091639 51 117 0.0 1.0 0.00 0.00 0.00 93 1012.9
20260510091529 51 11 0.0 1.0 0.00 0.00 0.00 93 1012.9
20260510091522 51 100 0.0 1.0 0.00 0.00 0.00 93 1012.9
20260510090135 51 82 0.0 1.0 0.00 0.00 0.00 93 1012.8
20260510085634 51 28 0.0 1.0 0.00 0.00 0.00 93 1012.8
20260510085133 51 100 0.0 1.0 0.00 0.00 0.00 93 1012.8
20260510084632 51 54 0.0 1.0 0.00 0.00 0.00 93 1012.9
20260510084130 51 117 0.0 1.0 0.00 0.00 0.00 93 1012.8
20260510083630 51 116 0.0 1.0 0.00 0.00 0.00 93 1012.8
20260510083426 51 100 0.0 1.0 0.00 0.00 0.00 93 1012.9
20260510082629 51 11 0.0 1.0 0.00 0.00 0.00 93 1012.9
20260510082131 51 11 0.0 1.0 0.00 0.00 0.00 93 1012.8
20260510081630 51 11 0.0 1.0 0.00 0.00 0.00 93 1012.8
20260510081131 52 54 0.0 1.0 0.00 0.00 0.00 93 1012.8
20260510080630 52 54 0.0 1.0 0.00 0.00 0.00 93 1012.8
20260510080131 52 54 0.0 1.0 0.00 0.00 0.00 92 1012.7
20260510075630 52 54 0.0 1.0 0.00 0.00 0.00 93 1012.5
20260510075130 52 234 0.0 1.0 0.00 0.00 0.00 93 1012.4
20260510074930 52 11 0.0 1.0 0.00 0.00 0.00 93 1012.3
20260510074129 52 11 0.0 1.0 0.00 0.00 0.00 93 1012.2
20260510073621 52 54 0.0 1.0 0.00 0.00 0.00 93 1012.3
20260510073116 52 54 0.0 1.0 0.00 0.00 0.00 93 1012.3
20260510072913 52 11 0.0 1.0 0.00 0.00 0.00 93 1012.3
20260510072116 52 54 0.0 1.0 0.00 0.00 0.00 93 1012.1
20260510071617 53 305 0.0 1.0 0.00 0.00 0.00 93 1012.0
20260510071116 53 234 0.0 1.0 0.00 0.00 0.00 92 1011.9
20260510070616 53 100 0.0 1.0 0.00 0.00 0.00 92 1011.9
20260510070117 53 82 0.0 1.0 0.00 0.00 0.00 92 1011.8
20260510065616 53 54 0.0 1.0 0.00 0.00 0.00 92 1011.8
20260510065118 53 54 0.0 1.0 0.00 0.00 0.00 92 1011.8
20260510064618 53 54 0.0 1.0 0.00 0.00 0.00 92 1011.8
20260510064117 53 54 0.0 3.0 0.00 0.00 0.00 92 1011.6
20260510063617 53 143 0.0 3.0 0.00 0.00 0.00 92 1011.6
20260510063118 53 261 0.0 3.0 0.00 0.00 0.00 92 1011.7
20260510062616 54 11 1.0 3.0 0.00 0.00 0.00 92 1011.6
20260510062115 54 82 0.0 1.0 0.00 0.00 0.00 92 1011.6
20260510061617 54 82 0.0 3.0 0.00 0.00 0.00 92 1011.6
20260510061113 54 100 0.0 3.0 0.00 0.00 0.00 91 1011.7
20260510060604 54 54 0.0 1.0 0.00 0.00 0.00 92 1011.6
20260510060105 54 234 0.0 1.0 0.00 0.00 0.00 91 1011.6
20260510055603 54 100 0.0 1.0 0.00 0.00 0.00 91 1011.6
20260510055102 55 54 0.0 1.0 0.00 0.00 0.00 91 1011.8
20260510054603 55 100 0.0 1.0 0.00 0.00 0.00 91 1011.7
20260510054352 55 82 0.0 1.0 0.00 0.00 0.00 91 1011.7
20260510053652 55 54 0.0 1.0 0.00 0.00 0.00 91 1011.9
20260510053638 55 11 0.0 1.0 0.00 0.00 0.00 91 1011.9
20260510052602 55 54 0.0 1.0 0.00 0.00 0.00 91 1011.9
20260510052352 55 82 1.0 1.0 0.00 0.00 0.00 91 1011.9
20260510051602 55 89 1.0 1.0 0.00 0.00 0.00 91 1011.8
20260510051102 55 73 0.0 1.0 0.00 0.00 0.00 90 1011.8
20260510050601 56 54 0.0 1.0 0.00 0.00 0.00 90 1011.9
20260510050400 56 82 0.0 1.0 0.00 0.00 0.00 91 1011.8
20260510045601 56 11 1.0 1.0 0.00 0.00 0.00 90 1011.7
20260510045101 56 89 0.0 3.0 0.00 0.00 0.00 90 1011.8
20260510044853 56 11 0.0 3.0 0.00 0.00 0.00 90 1011.8
20260510044103 56 234 0.0 1.0 0.00 0.00 0.00 90 1011.7
20260510043600 56 11 0.0 1.0 0.00 0.00 0.00 90 1011.8
20260510043101 56 11 0.0 1.0 0.00 0.00 0.00 90 1011.8
20260510042601 57 11 0.0 1.0 0.00 0.00 0.00 89 1011.6
20260510042102 57 54 0.0 1.0 0.00 0.00 0.00 89 1011.7
20260510041602 57 100 0.0 1.0 0.00 0.00 0.00 89 1011.7
20260510041102 57 11 0.0 1.0 0.00 0.00 0.00 89 1011.5
20260510040657 57 54 0.0 1.0 0.00 0.00 0.00 89 1011.7
20260510040636 57 54 0.0 1.0 0.00 0.00 0.00 89 1011.7
20260510035602 57 11 0.0 1.0 0.00 0.00 0.00 88 1011.6
20260510035102 58 54 0.0 1.0 0.00 0.00 0.00 88 1011.6
20260510034853 58 54 0.0 1.0 0.00 0.00 0.00 88 1011.5
20260510034103 58 54 0.0 1.0 0.00 0.00 0.00 87 1011.5
20260510033601 58 54 0.0 1.0 0.00 0.00 0.00 87 1011.5
20260510033103 58 54 0.0 1.0 0.00 0.00 0.00 87 1011.4
20260510032601 58 82 0.0 1.0 0.00 0.00 0.00 86 1011.5
20260510032101 58 11 0.0 1.0 0.00 0.00 0.00 86 1011.5
20260510031602 59 82 0.0 1.0 0.00 0.00 0.00 86 1011.6
20260510031101 59 54 0.0 1.0 0.00 0.00 0.00 86 1011.5
20260510030602 59 353 0.0 1.0 0.00 0.00 0.00 85 1011.5
20260510030103 59 353 0.0 1.0 0.00 0.00 0.00 85 1011.4
20260510025601 60 54 0.0 1.0 0.00 0.00 0.00 85 1011.5
20260510025101 60 11 0.0 1.0 0.00 0.00 0.00 84 1011.4
20260510024602 60 100 0.0 1.0 0.00 0.00 0.00 84 1011.4
20260510024102 60 54 0.0 1.0 0.00 0.00 0.00 84 1011.4
20260510023849 60 28 0.0 1.0 0.00 0.00 0.00 83 1011.3
20260510023103 60 11 0.0 1.0 0.00 0.00 0.00 82 1011.2
20260510022602 60 54 0.0 1.0 0.00 0.00 0.00 82 1011.2
20260510022102 61 54 0.0 1.0 0.00 0.00 0.00 82 1011.1
20260510021851 61 11 0.0 1.0 0.00 0.00 0.00 82 1011.0
20260510021352 61 234 0.0 1.0 0.00 0.00 0.00 81 1011.1
20260510020604 61 54 0.0 1.0 0.00 0.00 0.00 81 1011.0
20260510020100 61 11 0.0 1.0 0.00 0.00 0.00 81 1011.0
20260510015654 62 11 0.0 1.0 0.00 0.00 0.00 80 1010.9
20260510015634 62 54 0.0 1.0 0.00 0.00 0.00 80 1011.0
20260510014601 62 279 0.0 3.0 0.00 0.00 0.00 79 1010.9
20260510014103 62 279 0.0 3.0 0.00 0.00 0.00 79 1010.8
20260510013654 62 261 0.0 3.0 0.00 0.00 0.00 79 1010.6
20260510013636 62 11 0.0 3.0 0.00 0.00 0.00 79 1010.8
20260510012602 62 279 0.0 1.0 0.00 0.00 0.00 79 1010.6
20260510012103 62 234 0.0 1.0 0.00 0.00 0.00 78 1010.5
20260510011604 62 100 0.0 1.0 0.00 0.00 0.00 78 1010.3
20260510011448 63 100 0.0 3.0 0.00 0.00 0.00 76 1010.3
20260510011133 63 326 0.0 1.0 0.00 0.00 0.00 78 1010.3
20260510010103 63 82 0.0 3.0 0.00 0.00 0.00 76 1010.2
20260510005602 63 143 0.0 3.0 0.00 0.00 0.00 76 1010.1
20260510005103 64 54 0.0 1.0 0.00 0.00 0.00 76 1010.2
20260510004604 64 326 0.0 1.0 0.00 0.00 0.00 74 1010.0
20260510004103 65 54 0.0 1.0 0.00 0.00 0.00 73 1009.9
20260510003602 65 54 0.0 1.0 0.00 0.00 0.00 72 1009.9
20260510003102 66 54 0.0 1.0 0.00 0.00 0.00 71 1009.9
20260510002604 66 11 0.0 1.0 0.00 0.00 0.00 70 1009.9
20260510002101 66 11 0.0 3.0 0.00 0.00 0.00 69 1009.8
20260510001602 67 54 1.0 3.0 0.00 0.00 0.00 68 1009.8
20260510001102 67 241 0.0 3.0 0.00 0.00 0.00 67 1009.8
20260510000856 68 338 0.0 3.0 0.00 0.00 0.00 66 1009.7
20260509235603 69 54 1.0 3.0 0.00 0.00 0.00 64 1009.7
20260509235104 69 54 1.0 3.0 0.00 0.00 0.00 64 1009.7
20260509234853 69 54 0.0 3.0 0.00 0.00 0.00 63 1009.5
20260509234101 70 143 0.0 3.0 0.00 0.00 0.00 62 1009.4
20260509233602 70 326 1.0 3.0 0.00 0.00 0.00 61 1009.4
20260509233101 71 54 0.0 3.0 0.00 0.00 0.00 61 1009.4
20260509232853 71 100 0.0 1.0 0.00 0.00 0.00 61 1009.4
20260509232101 71 54 0.0 3.0 0.00 0.00 0.00 60 1009.4
20260509231601 71 11 0.0 3.0 0.00 0.00 0.00 58 1009.3
20260509231101 71 54 0.0 3.0 0.00 0.00 0.00 57 1009.3
20260509230601 72 73 0.0 3.0 0.00 0.00 0.00 57 1009.3
20260509225853 72 100 0.0 3.0 0.00 0.00 0.00 56 1009.4
20260509225105 72 100 0.0 1.0 0.00 0.00 0.00 56 1009.3
20260509224603 72 11 0.0 1.0 0.00 0.00 0.00 55 1009.4
20260509224102 73 100 1.0 3.0 0.00 0.00 0.00 54 1009.4
20260509223603 72 54 1.0 3.0 0.00 0.00 0.00 55 1009.3
20260509223102 73 89 1.0 4.0 0.00 0.00 0.00 56 1009.2
20260509222602 74 11 1.0 4.0 0.00 0.00 0.00 50 1009.2
20260509222104 74 188 0.0 3.0 0.00 0.00 0.00 50 1009.3
20260509221602 74 100 1.0 3.0 0.00 0.00 0.00 53 1009.3
20260509221402 74 54 1.0 3.0 0.00 0.00 0.00 52 1009.3
20260509220601 74 188 1.0 3.0 0.00 0.00 0.00 53 1009.3
20260509215603 74 11 1.0 5.0 0.00 0.00 0.00 51 1009.3
20260509215400 75 296 1.0 5.0 0.00 0.00 0.00 49 1009.3
20260509214602 75 166 2.0 5.0 0.00 0.00 0.00 48 1009.4
20260509214103 76 203 2.0 7.0 0.00 0.00 0.00 47 1009.3
20260509213603 76 158 2.0 7.0 0.00 0.00 0.00 45 1009.3
20260509213101 78 222 2.0 5.0 0.00 0.00 0.00 46 1009.3
20260509212600 77 143 1.0 5.0 0.00 0.00 0.00 46 1009.3
20260509212102 76 54 1.0 4.0 0.00 0.00 0.00 48 1009.3
20260509211601 75 82 1.0 4.0 0.00 0.00 0.00 49 1009.2
20260509211100 74 41 1.0 3.0 0.00 0.00 0.00 49 1009.3
20260509210601 74 11 1.0 3.0 0.00 0.00 0.00 51 1009.4
20260509205602 74 143 1.0 4.0 0.00 0.00 0.00 50 1009.4